Date,TemperatureHighF,TemperatureAvgF,TemperatureLowF,DewpointHighF,DewpointAvgF,DewpointLowF,HumidityHigh,HumidityAvg,HumidityLow,PressureMaxIn,PressureMinIn,WindSpeedMaxMPH,WindSpeedAvgMPH,GustSpeedMaxMPH,PrecipitationSumIn
2013-1-1,24,16,3,12,5,-9,67,60,56,30.53,30.38,4,0,4,0.00
2013-1-2,28,20,6,13,8,-7,68,58,43,30.53,30.41,2,0,3,0.00
2013-1-3,31,11,2,9,-5,-12,52,48,36,30.41,30.27,3,0,3,0.04
2013-1-4,27,22,6,15,8,-10,61,54,46,30.35,30.29,4,0,4,0.00
2013-1-5,34,29,25,17,14,12,64,53,42,30.35,30.18,6,0,6,0.00
2013-1-6,29,26,24,19,17,14,73,68,61,30.18,30.06,5,0,5,0.00
2013-1-7,36,32,27,30,24,19,81,75,61,30.06,29.82,15,1,15,0.04
2013-1-8,34,31,29,22,21,20,71,67,60,30.06,29.97,3,0,3,0.00
2013-1-9,35,34,34,18,18,17,52,51,48,29.79,29.76,5,0,5,0.00
2013-1-10,34,29,25,18,15,11,67,57,46,29.88,29.79,5,0,5,0.00
2013-1-11,35,20,0,16,4,-17,67,50,31,30.18,29.88,0,0,0,0.08
2013-1-12,24,12,-1,7,-4,-18,63,50,43,30.27,30.18,0,0,0,0.00
2013-1-13,28,15,6,5,-3,-10,53,46,33,30.35,30.27,0,0,0,0.00
2013-1-14,23,19,14,12,8,-2,66,61,55,30.38,30.27,0,0,0,0.00
2013-1-15,28,24,20,18,13,10,68,62,50,30.53,30.38,0,0,0,0.00
2013-1-16,38,24,9,19,11,-4,71,57,39,30.53,30.47,0,0,0,0.04
2013-1-17,23,16,6,13,6,-7,68,63,55,30.50,30.32,0,0,0,0.00
2013-1-18,28,16,4,16,5,-8,68,62,53,30.32,30.24,0,0,0,0.00
2013-1-19,36,17,4,14,2,-8,59,52,38,30.38,30.29,0,0,0,0.00
2013-1-20,35,14,3,12,-2,-12,59,50,34,30.47,30.35,0,0,0,0.00
2013-1-21,28,9,0,7,-8,-16,47,46,39,30.35,30.24,0,0,0,0.00
2013-1-22,24,13,4,10,-1,-11,58,52,47,30.29,30.12,0,0,0,0.00
2013-1-23,32,24,13,25,12,1,75,59,43,30.15,29.91,14,0,14,0.00
2013-1-24,32,27,23,21,16,11,70,63,55,30.24,30.03,6,0,6,0.00
2013-1-25,37,33,30,31,27,21,80,77,70,30.15,29.94,0,0,0,0.20
2013-1-26,32,32,30,24,23,20,72,70,66,29.94,29.91,0,0,0,0.20
2013-1-27,31,29,26,22,18,14,75,64,52,30.00,29.94,0,0,0,0.20
2013-1-28,32,29,27,24,20,17,76,68,56,29.94,29.85,0,0,0,0.20
2013-1-29,36,31,27,24,20,16,74,66,46,30.15,29.88,3,0,3,0.20
2013-1-30,36,32,26,27,24,19,79,72,58,30.21,30.09,7,0,7,0.12
2013-1-31,38,33,27,33,26,20,83,77,62,30.27,30.15,5,0,5,0.20
2013-2-1,36,32,26,30,25,18,84,76,57,30.41,30.18,4,0,4,0.00
2013-2-2,38,32,26,30,25,19,83,75,52,30.44,30.24,4,0,4,0.00
2013-2-3,34,31,28,29,26,22,85,82,77,30.24,30.09,0,0,0,0.20
2013-2-4,38,33,27,30,24,19,86,73,49,30.12,30.00,8,0,8,0.00
2013-2-5,42,34,24,32,23,18,79,65,43,30.00,29.82,8,0,8,0.00
2013-2-6,42,35,30,27,20,17,72,55,38,30.06,29.91,6,0,6,0.20
2013-2-7,38,35,32,26,23,20,75,63,55,30.03,29.91,0,0,0,0.00
2013-2-8,44,33,22,33,22,12,82,65,35,30.12,30.03,4,0,4,0.00
2013-2-9,34,27,17,24,17,6,77,66,47,30.18,30.03,4,0,4,0.00
2013-2-10,35,27,16,23,14,6,72,59,42,30.27,30.18,4,0,4,0.00
2013-2-11,40,32,23,22,17,11,68,56,39,30.21,30.18,3,0,3,0.00
2013-2-12,39,35,32,26,20,17,65,55,42,30.27,30.12,8,0,8,0.00
2013-2-13,50,36,22,30,18,10,70,49,29,30.32,30.12,8,0,8,0.00
2013-2-14,38,27,17,19,13,6,65,56,41,30.50,30.29,0,0,0,0.00
2013-2-15,48,29,16,21,14,7,67,55,32,30.50,30.24,3,0,3,0.00
2013-2-16,41,30,18,24,17,9,69,59,40,30.24,29.91,5,0,5,0.00
2013-2-17,51,33,20,29,15,8,73,51,21,30.09,29.94,6,0,6,0.00
2013-2-18,44,31,17,17,12,6,62,47,30,30.09,29.79,3,0,3,0.00
2013-2-19,38,33,29,26,23,15,76,66,54,29.85,29.73,0,0,0,0.12
2013-2-20,41,30,16,26,15,4,78,57,31,30.00,29.85,6,0,6,0.00
2013-2-21,35,27,14,24,16,3,74,62,53,30.00,29.94,4,0,4,0.04
2013-2-22,38,34,29,32,24,14,81,69,42,29.97,29.62,13,1,13,0.08
2013-2-23,45,33,18,15,12,7,62,42,28,30.18,29.67,10,1,10,0.24
2013-2-24,40,28,12,19,12,2,67,52,33,30.29,30.06,6,0,6,0.00
2013-2-25,40,34,27,27,19,13,74,55,39,30.09,29.88,13,1,13,0.28
2013-2-26,44,29,18,17,12,7,66,50,30,30.29,30.09,8,0,8,0.00
2013-2-27,47,33,24,23,15,11,67,49,28,30.24,30.18,6,0,6,0.00
2013-2-28,41,34,29,28,22,15,77,62,47,30.32,30.24,5,0,5,0.12
2013-3-1,50,40,34,41,30,27,84,70,47,30.32,30.27,8,0,8,0.04
2013-3-2,49,39,32,36,28,22,84,65,40,30.27,29.88,10,0,10,0.00
2013-3-3,49,38,25,24,10,4,51,32,16,30.18,29.88,11,2,11,0.00
2013-3-4,47,32,21,15,7,2,57,36,17,30.27,30.06,5,0,5,0.00
2013-3-5,38,34,30,19,11,3,52,38,29,30.09,29.85,6,2,6,0.00
2013-3-6,45,37,35,21,17,14,52,44,38,29.85,29.65,8,2,8,0.00
2013-3-9,37,29,25,15,13,12,60,52,38,30.38,30.32,0,0,0,0.00
2013-3-10,44,32,21,22,17,11,69,56,35,30.38,30.21,8,0,8,0.00
2013-3-11,52,36,27,32,18,6,78,52,18,30.29,30.21,6,0,6,0.00
2013-3-12,48,39,33,36,26,17,73,60,48,30.21,30.03,4,0,4,0.08
2013-3-13,55,45,38,37,28,24,74,53,35,30.18,30.06,6,0,6,0.00
2013-3-14,58,46,36,38,28,21,77,53,27,30.15,29.97,10,0,10,0.00
2013-3-15,60,48,34,27,22,18,57,36,24,30.15,30.00,9,1,9,0.00
2013-3-16,53,42,32,31,22,16,70,46,26,30.03,29.67,17,2,17,0.00
2013-3-17,48,37,32,18,11,6,43,34,19,29.91,29.67,13,2,13,0.00
2013-3-20,46,41,38,15,13,12,34,31,28,29.76,29.62,19,4,19,0.00
2013-3-21,45,36,31,14,9,4,41,32,20,30.00,29.76,14,2,14,0.00
2013-3-22,46,32,23,19,9,1,61,40,17,30.21,30.00,10,1,10,0.00
2013-3-23,46,30,18,14,9,4,61,43,20,30.29,30.21,8,0,8,0.00
2013-3-24,48,32,20,18,8,0,67,40,17,30.32,30.15,8,1,9,0.00
2013-3-25,54,36,21,12,8,5,55,36,15,30.18,30.00,8,1,8,0.00
2013-3-26,59,40,25,15,12,8,54,35,14,30.03,29.94,8,1,8,0.00
2013-3-27,60,43,29,24,19,14,57,40,22,30.00,29.97,8,1,8,0.00
2013-3-28,62,46,31,35,24,21,73,46,24,30.09,30.00,8,1,8,0.00
2013-3-29,64,45,30,37,22,14,74,46,16,30.21,30.09,10,1,10,0.00
2013-3-30,67,46,28,36,21,14,74,43,15,30.27,30.12,8,0,8,0.00
2013-3-31,73,49,29,32,21,14,72,40,14,30.12,29.94,6,0,6,0.00
2013-4-1,74,53,35,25,20,12,58,33,11,30.00,29.94,8,1,8,0.00
2013-4-2,69,52,36,32,25,16,61,38,15,30.09,30.00,11,2,11,0.00
2013-4-3,65,49,32,37,24,17,75,42,18,30.12,30.00,9,1,9,0.00
2013-4-4,58,48,36,44,32,22,77,57,29,30.03,29.76,10,0,11,0.16
2013-4-5,62,51,46,40,30,22,68,45,24,29.88,29.79,17,3,17,0.08
2013-4-6,58,50,44,38,24,13,72,40,17,29.88,29.82,17,3,19,0.08
2013-4-7,52,44,38,38,26,20,75,51,31,29.82,29.59,14,1,14,0.43
2013-4-8,50,42,36,24,19,12,56,40,26,30.21,29.76,8,1,8,0.00
2013-4-9,56,44,29,26,17,13,60,37,20,30.29,30.18,8,0,8,0.00
2013-4-10,60,47,38,39,28,20,71,49,25,30.18,29.79,17,1,17,0.12
2013-4-11,58,43,32,30,21,12,75,45,17,30.09,30.03,12,1,12,0.00
2013-4-12,54,41,29,31,21,14,71,48,23,30.09,29.62,13,2,13,0.04
2013-4-13,53,41,29,33,13,4,73,35,16,29.82,29.56,13,3,13,0.00
2013-4-14,52,36,24,20,15,9,62,44,21,29.94,29.82,8,1,8,0.00
2013-4-15,49,38,32,18,8,2,51,29,16,30.00,29.88,10,2,10,0.00
2013-4-27,60,56,51,19,16,14,27,20,17,30.03,29.97,10,1,10,0.00
2013-4-28,63,52,34,28,17,8,58,29,14,30.06,29.85,15,2,15,0.00
2013-4-29,58,48,36,21,10,-1,38,23,14,29.94,29.73,26,4,26,0.00
2013-4-30,50,38,24,20,10,2,49,34,16,30.29,29.94,9,1,9,0.00
2013-5-1,61,42,21,20,11,4,62,33,14,30.56,30.29,10,1,10,0.00
2013-5-2,71,50,27,26,15,10,53,29,12,30.56,30.24,8,1,8,0.00
2013-5-3,74,59,46,28,23,16,47,27,13,30.27,30.18,9,1,9,0.00
2013-5-4,74,59,41,34,21,12,59,28,11,30.29,30.12,10,1,10,0.00
2013-5-5,79,60,39,23,18,12,46,23,10,30.12,29.91,10,2,10,0.00
2013-5-6,86,62,37,29,22,15,50,26,9,29.94,29.79,8,1,8,0.00
2013-5-7,87,63,38,32,25,18,59,29,11,29.94,29.82,6,1,6,0.00
2013-5-8,87,66,45,36,27,21,52,28,11,30.03,29.94,8,1,8,0.00
2013-5-9,89,67,45,38,30,20,64,31,10,30.12,30.03,8,1,8,0.00
2013-5-10,90,67,44,36,28,20,58,29,10,30.18,30.09,8,1,8,0.00
2013-5-11,88,67,49,39,31,22,54,31,11,30.15,30.06,8,1,8,0.00
2013-5-12,80,65,51,40,35,30,58,36,17,30.06,30.00,13,0,13,0.00
2013-5-13,63,57,48,45,34,16,70,42,27,30.06,29.94,10,2,10,0.16
2013-5-14,64,51,39,23,18,10,52,29,16,30.15,30.06,10,1,10,0.00
2013-5-15,68,52,33,28,21,15,63,34,15,30.09,29.94,10,1,10,0.00
2013-5-16,55,54,52,31,28,23,44,37,28,29.97,29.97,0,0,0,0.00
2013-6-8,68,64,56,26,22,18,31,20,15,29.94,29.91,4,1,4,0.00
2013-6-9,79,61,42,32,22,12,56,27,10,29.94,29.85,11,1,11,0.00
2013-6-10,78,59,38,29,22,14,51,28,10,29.91,29.79,8,1,8,0.00
2013-6-11,73,58,38,31,23,14,56,30,14,30.00,29.82,12,2,12,0.00
2013-6-12,71,57,38,28,21,15,52,27,14,30.09,30.00,9,1,9,0.00
2013-6-13,70,52,38,33,24,16,54,37,14,30.06,30.03,10,2,10,0.04
2013-6-30,90,81,63,44,36,29,49,23,12,30.03,27.79,3,0,3,0.00
2013-7-1,97,78,58,48,40,26,58,31,8,27.85,27.73,6,0,6,0.00
2013-7-2,98,80,61,57,43,28,69,34,9,27.82,27.70,9,1,9,0.00
2013-7-3,91,74,59,49,36,22,60,30,10,27.79,27.67,10,1,11,0.00
2013-7-4,58,57,55,36,35,34,47,44,42,27.70,27.70,0,0,0,0.00
2013-8-10,90,89,88,32,32,30,13,13,12,27.73,27.73,5,1,5,0.00
2013-8-11,89,81,67,43,35,28,37,19,13,27.79,27.70,6,0,6,0.00
2013-8-12,91,73,57,48,38,24,64,34,10,27.82,27.73,6,0,6,0.00
2013-8-13,90,71,55,46,36,22,63,34,10,27.88,27.76,5,0,5,0.00
2013-8-14,94,71,52,44,35,24,60,31,9,27.79,27.67,5,0,5,0.00
2013-8-15,89,71,54,47,36,24,61,32,10,27.76,27.67,5,0,5,0.00
2013-8-16,85,70,56,43,35,23,55,32,11,27.79,27.73,10,0,10,0.00
2013-8-17,88,69,52,45,33,21,63,32,11,27.82,27.70,9,1,9,0.00
2013-8-18,87,68,48,44,30,20,63,30,11,27.88,27.76,13,1,13,0.00
2013-8-19,86,68,49,38,28,19,54,26,11,27.82,27.73,10,1,10,0.00
2013-8-20,85,64,45,38,26,14,58,29,9,27.85,27.73,10,0,10,0.00
2013-8-21,88,66,44,34,26,20,48,26,11,27.88,27.76,6,0,6,0.00
2013-8-22,90,70,48,36,27,22,43,24,10,27.79,27.61,6,0,6,0.00
2013-8-23,82,68,57,44,35,27,45,31,17,27.67,27.58,9,0,9,0.00
2013-8-24,85,65,49,46,35,26,67,37,13,27.67,27.55,6,0,6,0.00
2013-8-25,84,68,57,53,41,34,75,42,19,27.76,27.58,15,0,15,0.12
2013-8-26,78,67,55,53,38,25,79,39,15,27.79,27.70,8,0,8,0.12
2013-8-27,85,65,48,50,35,23,71,39,12,27.79,27.64,5,0,5,0.12
2013-8-28,86,67,54,39,34,23,49,33,11,27.70,27.61,6,0,6,0.00
2013-8-29,82,66,53,42,37,27,58,38,14,27.82,27.67,12,0,12,0.12
2013-8-30,82,67,52,48,33,20,69,35,11,27.91,27.79,10,1,10,0.12
2013-8-31,87,64,44,42,29,21,65,33,11,27.88,27.73,7,0,7,0.12
2013-9-1,95,69,46,36,28,20,49,27,9,27.73,27.58,10,1,10,0.12
2013-9-2,81,65,51,46,38,30,65,39,19,27.73,27.61,9,0,9,0.00
2013-9-3,86,70,57,47,41,35,62,39,18,27.79,27.70,7,0,7,0.12
2013-9-4,90,71,59,46,40,28,56,37,12,27.82,27.76,6,0,6,0.00
2013-9-28,57,55,53,45,41,36,70,59,49,27.46,27.29,14,2,14,0.20
2013-9-29,54,50,47,44,30,27,69,47,36,27.46,27.26,19,3,19,0.35
2013-9-30,56,50,44,41,26,21,72,41,26,27.67,27.23,17,4,17,0.08
2013-10-1,53,45,36,32,26,22,69,47,36,27.88,27.67,8,0,8,0.00
2013-10-2,52,44,36,30,25,22,67,49,32,27.91,27.82,6,0,6,0.08
2013-10-3,61,44,29,38,21,15,74,45,19,28.14,27.82,5,0,5,0.00
2013-10-4,62,42,28,35,19,12,71,43,16,28.23,28.14,6,0,6,0.00
2013-10-5,63,44,29,31,20,14,66,43,16,28.17,28.02,8,0,8,0.00
2013-10-6,67,46,29,38,22,18,73,44,17,28.02,27.73,4,0,6,0.08
2013-10-7,64,46,31,34,22,13,68,42,20,27.73,27.55,13,1,13,0.08
2013-10-8,54,44,36,32,27,17,69,52,30,27.79,27.61,8,1,8,0.08
2013-10-9,61,44,32,34,26,20,79,52,24,27.85,27.67,6,0,6,0.08
2013-10-10,44,42,41,32,30,26,67,61,54,27.67,27.64,5,0,5,0.08
2013-10-13,37,33,29,17,16,14,55,50,43,28.02,27.99,0,0,0,0.00
2013-10-14,61,39,25,28,15,10,68,41,16,28.14,28.02,6,0,6,0.00
2013-10-15,59,39,23,25,16,9,63,43,17,28.14,27.94,7,0,7,0.00
2013-10-16,62,44,32,32,22,18,68,45,24,27.94,27.88,6,0,6,0.00
2013-10-17,60,40,26,31,20,14,68,47,24,28.02,27.91,6,0,6,0.00
2013-10-18,59,39,24,29,19,12,66,47,25,28.05,27.94,6,0,6,0.00
2013-10-19,62,41,26,32,20,14,68,48,22,27.94,27.85,8,0,8,0.00
2013-10-20,64,42,27,37,22,16,70,49,24,27.94,27.85,6,0,6,0.00
2013-10-21,34,31,29,22,20,19,66,64,60,27.96,27.94,0,0,0,0.00
2013-10-26,51,39,31,31,24,18,70,54,42,28.02,27.85,4,0,4,0.00
2013-10-27,48,40,31,41,27,13,83,63,27,27.85,27.58,14,1,14,0.00
2013-10-28,47,38,34,22,8,-1,59,29,18,27.79,27.70,11,2,11,0.00
2013-10-29,51,35,23,15,5,-1,47,30,16,27.79,27.70,7,0,7,0.00
2013-10-30,46,30,16,18,9,2,54,42,25,27.85,27.76,5,0,5,0.00
2013-10-31,54,38,26,34,18,9,69,47,26,27.91,27.79,7,0,7,0.00
2013-11-1,50,34,23,32,22,11,74,60,40,28.02,27.76,4,0,4,0.00
2013-11-2,51,42,35,43,26,14,83,56,28,27.79,27.32,19,3,19,0.51
2013-11-3,44,36,28,23,16,12,61,44,29,27.76,27.52,11,1,11,0.00
2013-11-4,39,31,24,22,17,14,69,56,39,27.91,27.76,6,0,6,0.00
2013-11-5,35,31,25,27,22,14,77,69,60,27.94,27.88,0,0,0,0.08
2013-11-6,36,34,33,30,25,20,81,70,53,28.11,27.94,4,0,4,0.04
2013-11-7,42,37,34,37,30,19,83,73,50,27.99,27.52,14,1,14,0.71
2013-11-8,50,40,28,30,24,16,69,54,30,27.91,27.67,11,1,11,0.00
2013-11-9,47,39,27,32,24,18,76,58,37,27.96,27.88,4,0,4,0.00
2013-11-10,44,39,37,32,29,25,77,66,50,27.99,27.88,3,0,3,0.04
2013-11-11,50,42,36,29,26,23,73,53,36,28.11,27.99,8,1,8,0.00
2013-11-12,48,41,35,32,25,20,68,53,38,28.08,27.99,6,0,6,0.00
2013-11-13,46,42,37,38,29,24,80,62,44,28.08,27.99,8,1,8,0.00
2013-11-14,48,39,32,34,26,18,77,62,38,27.99,27.67,6,0,6,0.00
2013-11-15,38,36,33,30,25,19,78,66,48,27.67,27.11,11,2,11,0.47
2013-11-16,45,36,30,32,24,16,77,62,35,27.43,26.99,10,1,10,0.20
2013-11-17,44,37,28,28,18,12,62,46,39,27.67,27.43,14,2,14,0.04
2013-11-18,48,42,38,35,24,20,74,49,36,27.67,27.43,10,1,10,0.63
2013-11-19,53,45,36,38,24,1,77,45,22,27.58,27.34,15,2,15,0.08
2013-11-20,36,27,14,3,-5,-11,44,25,19,28.17,27.58,11,3,11,0.00
2013-11-21,35,21,11,5,-2,-8,48,37,22,28.38,28.17,5,0,5,0.00
2013-11-22,38,16,11,8,-2,-5,53,45,22,28.47,28.35,4,0,4,0.00
2013-11-23,40,26,18,9,4,1,50,39,23,28.35,28.05,4,0,4,0.00
2013-11-24,42,26,15,13,7,1,55,45,28,28.11,28.02,4,0,4,0.00
2013-11-25,42,29,20,18,10,7,60,46,29,28.17,28.08,4,0,4,0.00
2013-11-26,26,22,19,11,8,6,61,55,51,28.11,28.02,0,0,0,0.00
2013-12-6,12,8,5,-18,-21,-24,24,24,24,27.99,27.96,10,2,10,0.00
2013-12-7,16,5,-5,-16,-25,-34,24,23,21,28.02,27.94,8,0,8,0.00
2013-12-8,15,5,-4,-8,-22,-34,34,27,22,28.20,28.02,6,0,6,0.00
2013-12-9,18,14,10,-2,-9,-14,46,35,32,28.17,28.05,3,0,3,0.00
2013-12-10,28,16,6,3,-3,-10,50,42,31,28.17,28.02,6,0,6,0.00
2013-12-11,30,25,19,10,6,3,56,45,37,28.17,28.05,3,0,3,0.00
2013-12-12,32,24,17,15,10,5,61,55,47,28.05,27.85,0,0,0,0.00
2013-12-13,34,30,25,22,15,11,67,55,43,28.14,27.88,5,0,5,0.00
2013-12-14,36,33,30,30,26,22,82,77,68,28.14,28.02,4,0,4,0.04
2013-12-15,46,32,23,37,24,18,82,72,41,28.02,27.94,6,0,6,0.04
2013-12-16,39,34,29,30,24,19,79,66,48,28.11,28.02,5,0,5,0.04
2013-12-17,42,30,25,31,20,15,73,64,46,28.05,27.73,0,0,0,0.00
2013-12-18,33,30,24,25,20,3,74,66,34,27.73,27.61,0,0,0,0.04
2013-12-19,32,24,14,6,2,-2,50,37,30,27.94,27.73,0,0,0,0.00
2013-12-20,22,21,21,2,2,0,43,42,39,27.85,27.82,0,0,0,0.00
2013-12-21,30,27,26,18,14,8,70,57,42,27.85,27.79,0,0,0,0.00
2013-12-22,32,29,27,24,20,18,74,69,63,28.02,27.85,0,0,0,0.00
2013-12-23,39,33,21,35,27,14,84,77,70,28.05,27.73,9,0,9,0.16
2013-12-24,36,23,12,24,12,2,73,64,52,28.26,28.05,0,0,0,0.04
2013-12-25,35,23,9,17,10,0,68,60,44,28.26,28.11,0,0,0,0.00
2013-12-26,37,27,18,24,15,7,70,61,43,28.14,28.02,0,0,0,0.00
2013-12-27,32,24,12,20,12,2,71,61,53,28.02,27.79,0,0,0,0.04
2013-12-28,28,26,25,21,20,18,77,75,71,28.17,27.94,0,0,0,0.00
2013-12-29,32,28,18,26,22,11,80,78,74,28.17,27.96,0,0,0,0.00
2013-12-30,32,26,16,25,18,7,76,72,68,28.02,27.85,0,0,0,0.00
2013-12-31,33,30,25,27,23,18,78,75,70,28.08,27.82,0,0,0,0.00
2014-1-1,34,30,26,28,24,19,81,77,70,28.17,28.08,0,0,0,0.00
2014-1-2,36,32,28,31,26,20,80,76,61,28.08,27.52,6,0,6,0.00